Hourly Weather Roundup
Issued by NWS Central Illinois

Home | Current Version | Previous Version | Text Only | Print | Product List | Glossary On
Versions: 1 2 3 4 5 6 7 8 9 10 11 12 13 14 15 16 17 18 19 20 21 22 23 24 25 26 27 28 29 30 31 32 33 34 35 36 37 38 39 40 41 42 43 44 45 46 47 48 49 50
000
NZUS43 KILX 061610
HWRILX

AREA WEATHER ROUNDUP
NATIONAL WEATHER SERVICE, LINCOLN IL
1100 AM CDT MON JUL 06 2015


CITY           SKY/WX    TMP DP  RH WIND       PRES   REMARKS
BLOOMINGTON    FAIR      82  74  77 S16       30.01F HX  88
CHAMPAIGN      FAIR      81  71  71 S13       30.03F HX  85
DANVILLE       FAIR      79  71  74 SW14      30.02S HAZE    HX  82
DECATUR        FAIR      82  72  71 S13       30.02S HX  87
EFFINGHAM      FAIR      82  70  66 S6        30.05F HX  86
FLORA          FAIR      81  73  75 SW10      30.05S HX  85
GALESBURG      PTSUNNY   78  72  82 S7        29.95S HX  80
JACKSONVILLE   FAIR      84  75  74 S10       29.98S HX  92
LACON          FAIR      82  73  72 SW10G16   29.95S HX  88
LAWRENCEVILLE  FAIR      82  73  74 S6        30.06S HX  87
LITCHFIELD     PTSUNNY   79  72  77 S10       30.03S HX  83
$$


CITY           SKY/WX    TMP DP  RH WIND       PRES   REMARKS
LINCOLN        FAIR      83  73  70 S12G17    29.99S HX  89
MACOMB         FAIR      78  73  82 S5        29.97S HX  81
MATTOON        FAIR      81  72  74 S12G20    30.03F HX  85
MT CARMEL AP   FAIR      84  70  61 S13       30.06S HX  88
OLNEY-NOBLE AP FAIR      81  72  74 S6        30.05S HX  84
PARIS          FAIR      81  71  70 S8        30.05F HX  85
PEORIA         FAIR      83  72  69 S15       29.96F HX  88
PONTIAC        FAIR      82  74  77 S10       30.00S HX  87
RANTOUL        FAIR      82  72  70 S10       30.03S HX  87
ROBINSON       FAIR      82  73  72 S9        30.06S HX  87
SPRINGFIELD    FAIR      84  74  71 S9        29.99F HX  91
TAYLORVILLE    FAIR      81  73  78 S10       30.02S HX  85
$$

...REGIONAL REPORTS...


CITY           SKY/WX    TMP DP  RH WIND       PRES   REMARKS
CHICAGO O`HARE PTSUNNY   80  68  66 S15       29.97S HX  83
KANKAKEE       FAIR      81  70  70 S13G20    30.02S HX  84
MOLINE         PTSUNNY   79  71  76 W12       29.94R HX  82
MOUNT STERLING NOT AVBL
MOUNT VERNON   CLOUDY    81  72  74 S13       30.06F HX  84
PITTSFIELD     FAIR      82  74  75 S9        29.99F HX  88
QUINCY         FAIR      80  73  79 S10       29.96S HX  84
ROCKFORD       CLOUDY    81  71  71 S16       29.95R HX  85
$$


CITY           SKY/WX    TMP DP  RH WIND       PRES   REMARKS
BURLINGTON     FAIR      78  73  84 SW10      29.94R HX  81
CEDAR RAPIDS   LGT RAIN  71  71 100 SE7       29.88F FOG
DES MOINES     CLOUDY    78  72  81 E7        29.84F HX  80
KIRKSVILLE     FAIR      78  71  79 SW9G18    29.94S HX  80
OTTUMWA        FAIR      77  72  84 SE5       29.89F
ST LOUIS       PTSUNNY   88  72  58 SW8       30.01F HX  94
$$


CITY           SKY/WX    TMP DP  RH WIND       PRES   REMARKS
TERRE HAUTE    FAIR      81  69  67 S9        30.06S HX  84
EVANSVILLE     FAIR      82  71  69 SW13      30.08R HX  86
INDIANAPOLIS   FAIR      80  68  66 S12       30.04F HX  83
LAFAYETTE      FAIR      80  67  64 SW10G18   30.04S HX  82
MADISON        LGT RAIN  73  70  90 SW5       29.93R FOG
MILWAUKEE      PTSUNNY   81  68  64 S14G23    29.93F HX  84
$$





USA.gov is the U.S. government's official web portal to all federal, state and local government web resources and services.